#timestamp,LO_Frequency,Hit,StdDev 
1635433215.7,286046999.5,N
1635433235.5,286046999.6,N
1635433255.3,286046999.0,N
1635433275.2,286046998.3,N
1635433295.0,286047000.1,N
1635433295.9,286047000.1,N
1635433315.8,286047000.6,N
1635433335.6,286047001.0,N
1635433355.4,286047001.0,N
1635433375.3,286046998.8,N
1635433395.1,286046999.3,N
1635433415.8,286047000.8,N
1635433435.7,286046996.5,N
1635433455.5,286046999.4,N
1635433475.4,286046996.5,N
1635433495.2,286046996.8,N
1635433515.0,286046996.8,N
1635433515.9,286046996.8,N
1635433535.8,286046999.4,N
1635433555.6,286046998.6,N
1635433575.4,286046998.2,N
1635433595.3,286046998.3,N
1635433615.1,286046999.5,N
1635433635.9,286046999.5,N
1635433655.7,286046999.2,N
1635433675.5,286046996.5,N
1635433695.4,286046999.6,N
1635433715.2,286046997.1,N
1635433735.0,286046996.6,N
1635433735.9,286046996.6,N
1635433755.8,286046997.0,N
1635433775.6,286046996.5,N
1635433795.5,286046997.7,N
1635433815.3,286046999.8,N
1635433835.1,286047001.5,N
1635433855.9,286047004.4,N
1635433875.7,286047002.1,N
1635433895.5,286047001.8,N
1635433915.4,286047002.3,N
1635433935.2,286046999.7,N
1635433955.1,286047001.2,N
1635433956.0,286047001.2,N
1635433975.8,286046998.3,N
1635433995.6,286046999.4,N
1635434015.5,286046999.5,N
1635434035.3,286046999.6,N
1635434055.1,286046996.9,N
1635434075.9,286046997.3,N
1635434095.7,286046997.0,N
1635434115.6,286046996.6,N
1635434135.4,286046999.6,N
1635434155.2,286046999.5,N
1635434175.1,286046997.0,N
1635434176.0,286046997.0,N
1635434195.8,286046998.2,N
1635434215.6,286047000.6,N
1635434235.5,286046998.3,N
1635434255.3,286046996.5,N
1635434275.2,286046999.6,N
1635434295.9,286046997.4,N
1635434315.7,286046997.1,N
1635434335.6,286046999.1,N
1635434355.4,286047001.0,N
1635434375.2,286046998.8,N
1635434395.1,286046999.0,N
1635434396.0,286046999.0,N
1635434415.8,286046999.6,N
1635434435.7,286046997.7,N
1635434455.5,286046997.5,N
1635434475.3,286047000.5,N
1635434495.2,286046999.2,N
1635434515.0,286046997.1,N
1635434515.9,286046997.1,N
1635434535.8,286046996.8,N
1635434555.6,286046998.6,N
1635434575.4,286046998.3,N
1635434595.3,286047002.3,N
1635434615.1,286047003.5,N
1635434635.9,286047004.1,N
1635434655.7,286047002.4,N
1635434675.5,286047000.5,N
1635434695.4,286046998.5,N
1635434715.2,286046996.7,N
1635434735.0,286046997.7,N
1635434735.9,286046997.7,N
1635434755.8,286046997.5,N
1635434775.6,286046996.3,N
1635434795.5,286046996.2,N
1635434815.3,286046996.1,N
1635434835.1,286046995.1,N
1635434855.9,286046995.7,N
1635434875.7,286046993.4,N
1635434925.6,286046997.9,E
1635434935.5,286046997.3,N
1635434955.3,286046998.7,P
1635434975.2,286047000.7,N
1635434995.0,286047000.9,N
1635434995.9,286047000.9,N
1635435015.8,286047001.1,N
1635435035.6,286046998.2,N
1635435055.4,286046998.4,N
1635435075.3,286046996.9,N
1635435095.1,286046997.3,N
1635435115.8,286046997.8,N
1635435135.7,286046999.5,N
1635435155.5,286046997.7,N
1635435175.4,286046999.5,N
1635435195.2,286046999.6,N
1635435215.0,286046997.2,N
1635435215.9,286046997.2,N
1635435235.8,286046997.3,N
1635435255.6,286046999.6,N
1635435275.5,286046998.7,N
1635435295.3,286046998.9,N
1635435315.1,286046998.9,N
1635435335.9,286046998.5,N
1635435355.7,286046999.2,N
1635435375.5,286046999.0,N
1635435395.4,286046999.0,N
1635435415.2,286046997.1,N
1635435435.1,286046997.0,N
1635435436.0,286046997.0,N
1635435455.8,286046997.0,N
1635435475.6,286046996.7,N
1635435495.5,286046996.9,N
1635435515.3,286046997.3,N
1635435535.1,286047004.3,Y
1635435555.9,286047003.2,P
1635435575.7,286047004.6,N
1635435595.6,286047005.5,N
1635435615.4,286047005.4,N
1635435635.2,286047003.1,N
1635435655.1,286047001.7,N
1635435656.0,286047001.7,N
1635435675.8,286047004.0,N
1635435695.6,286047003.7,N
1635435715.5,286047005.4,N
1635435735.3,286047003.4,N
1635435755.2,286047003.2,N
1635435775.9,286047005.4,N
1635435795.7,286047005.9,Y
1635435815.6,286047002.5,P
1635435835.4,286047002.4,P
1635435855.3,286047002.7,P
1635435875.1,286047000.5,N
1635435876.0,286047000.5,N
1635435895.8,286047004.0,Y
1635435915.7,286047002.1,P
1635435935.5,286047003.6,P
1635435955.3,286047001.6,N
1635435975.2,286047000.1,N
1635435995.0,286047002.4,N
1635435995.9,286047002.4,N
1635436015.8,286047000.6,N
1635436035.6,286047000.4,N
1635436055.4,286047000.1,N
1635436075.3,286046999.8,N
1635436095.1,286047002.1,N
1635436115.8,286047002.7,N
1635436135.7,286047002.3,N
1635436155.5,286047004.4,Y
1635436175.4,286047003.2,P
1635436195.2,286047003.1,P
1635436215.0,286047003.5,P
1635436215.9,286047003.5,Y
1635436235.8,286047002.8,P
1635436255.6,286046998.5,P
1635436275.5,286046999.9,N
1635436295.3,286047000.5,N
1635436315.1,286046999.0,N
1635436335.9,286046996.8,N
1635436355.7,286046995.3,N
1635436375.6,286046999.6,N
1635436395.4,286047001.2,N
1635436415.2,286046998.5,N
1635436465.1,286046998.4,E
1635436475.0,286046998.2,N
1635436475.9,286046998.2,P
1635436495.8,286047000.3,P
1635436515.6,286047002.1,N
1635436535.4,286047002.0,N
1635436555.3,286047000.7,N
1635436575.1,286046998.4,N
1635436595.9,286046998.6,N
1635436615.7,286047001.0,N
1635436635.5,286047001.0,N
1635436655.4,286047001.0,N
1635436675.2,286047000.4,N
1635436695.0,286047000.5,N
1635436696.0,286047000.5,N
1635436715.8,286047000.9,N
1635436735.6,286046998.9,N
1635436755.5,286047002.0,N
1635436775.3,286047003.9,N
1635436795.1,286047001.9,N
